�N����,�����b,�ŏ������i�x�j,���ϕ����i�x�j,�ő啗���i�x�j,�ŏ�����(m/s),���ϕ���(m/s),�ő啗��(m/s),�C��(���j,���x�i���j,�C��(hPa),�~�J��(mm),�~�J����(�b�j,�~�J���x(mm/h),�~�Ђ傤��(hit/���u),�~�Ђ傤����(�b�j,�~�Ђ傤���x(hit/���uh),�q�[�^���x(���j,�q�[�^�[�d���iV),�d���d���iV),�Q�Ɠd���iV)
2011/11/01,00:00:01,053,065,073,5.9,6.3,6.7,24.8,87.3,1009.7,0.00,0,0.0,0.0,0,0.0,23.9,0.0,12.4,3.509
2011/11/01,00:10:01,072,076,082,5.2,5.5,5.9,24.7,86.5,1009.6,0.00,0,0.0,0.0,0,0.0,23.6,0.0,12.3,3.511
2011/11/01,00:20:01,078,090,096,1.6,2.4,3.1,24.8,86.5,1009.7,0.00,0,0.0,0.0,0,0.0,23.7,0.0,12.3,3.511
2011/11/01,00:30:01,053,066,086,1.9,2.3,2.9,24.9,87.0,1009.7,0.00,0,0.0,0.0,0,0.0,23.9,0.0,12.3,3.511
2011/11/01,00:40:01,054,064,080,3.0,3.3,3.7,24.9,87.4,1009.7,0.00,0,0.0,0.0,0,0.0,23.7,0.0,12.3,3.513
2011/11/01,00:50:01,098,101,105,1.7,2.4,3.0,24.9,87.4,1009.6,0.00,0,0.0,0.0,0,0.0,23.9,0.0,12.3,3.510
2011/11/01,01:00:01,047,075,100,2.9,3.4,3.7,24.9,87.9,1009.7,0.00,0,0.0,0.0,0,0.0,23.7,0.0,12.3,3.513
2011/11/01,01:10:01,106,110,114,1.8,2.4,3.0,24.9,88.2,1009.6,0.00,0,0.0,0.0,0,0.0,23.7,0.0,12.3,3.511
2011/11/01,01:20:01,075,085,096,3.6,4.8,5.7,25.0,88.3,1009.7,0.00,0,0.0,0.0,0,0.0,23.7,0.0,12.3,3.511
2011/11/01,01:30:01,054,057,060,1.1,1.6,2.1,24.9,88.2,1009.7,0.00,0,0.0,0.0,0,0.0,23.9,0.0,12.3,3.513
2011/11/01,01:40:01,092,098,109,2.3,2.9,3.3,24.9,88.3,1009.6,0.00,0,0.0,0.0,0,0.0,23.7,0.0,12.3,3.511
2011/11/01,01:50:01,092,097,108,1.8,2.3,3.0,24.9,87.9,1009.5,0.00,0,0.0,0.0,0,0.0,23.7,0.0,12.3,3.510
2011/11/01,02:00:01,103,123,143,2.2,3.1,3.9,24.9,86.4,1009.4,0.00,0,0.0,0.0,0,0.0,24.1,0.0,12.3,3.513
2011/11/01,02:10:01,095,103,113,1.9,3.0,4.1,25.0,87.0,1009.3,0.00,0,0.0,0.0,0,0.0,23.9,0.0,12.3,3.511
2011/11/01,02:20:01,066,081,092,4.0,5.2,6.4,24.9,87.5,1009.1,0.00,0,0.0,0.0,0,0.0,23.9,0.0,12.3,3.511
2011/11/01,02:30:01,063,074,089,3.2,3.5,3.9,24.8,87.7,1009.0,0.00,0,0.0,0.0,0,0.0,23.7,0.0,12.2,3.514
2011/11/01,02:40:01,029,086,131,1.0,1.5,1.8,24.8,87.7,1009.1,0.00,0,0.0,0.0,0,0.0,23.7,0.0,12.3,3.513
2011/11/01,02:50:01,083,096,104,4.3,4.5,4.7,24.8,87.8,1009.0,0.00,0,0.0,0.0,0,0.0,23.9,0.0,12.3,3.511
2011/11/01,03:00:01,077,085,101,1.3,1.4,1.7,24.9,88.1,1008.9,0.00,0,0.0,0.0,0,0.0,23.7,0.0,12.3,3.511
2011/11/01,03:10:01,107,120,129,1.7,2.2,2.4,24.8,87.5,1008.9,0.00,0,0.0,0.0,0,0.0,23.7,0.0,12.3,3.511
2011/11/01,03:20:01,066,083,100,1.9,2.2,2.5,24.6,83.9,1008.9,0.00,0,0.0,0.0,0,0.0,23.7,0.0,12.3,3.514
2011/11/01,03:30:01,019,037,054,1.8,2.9,3.7,24.9,82.1,1009.0,0.00,0,0.0,0.0,0,0.0,23.9,0.0,12.3,3.511
2011/11/01,03:40:01,087,087,088,4.6,5.6,6.2,25.0,82.2,1009.0,0.00,0,0.0,0.0,0,0.0,23.9,0.0,12.3,3.513
2011/11/01,03:50:01,097,114,124,2.5,2.9,3.2,25.0,83.0,1009.0,0.00,0,0.0,0.0,0,0.0,23.9,0.0,12.3,3.513
2011/11/01,04:00:01,028,055,079,2.2,2.7,3.3,24.9,82.9,1009.0,0.00,0,0.0,0.0,0,0.0,23.9,0.0,12.3,3.513
2011/11/01,04:10:01,100,107,116,2.3,3.1,4.1,25.0,83.6,1008.8,0.00,0,0.0,0.0,0,0.0,23.9,0.0,12.3,3.511
2011/11/01,04:20:01,107,124,143,1.8,2.8,4.3,25.0,83.7,1008.7,0.00,0,0.0,0.0,0,0.0,24.3,0.0,12.3,3.511
2011/11/01,04:30:01,083,092,101,5.4,5.5,5.7,25.0,84.4,1008.7,0.00,0,0.0,0.0,0,0.0,23.9,0.0,12.3,3.511
2011/11/01,04:40:01,067,078,088,3.1,3.7,4.3,25.0,84.4,1008.8,0.00,0,0.0,0.0,0,0.0,24.3,0.0,12.3,3.513
2011/11/01,04:50:01,106,117,128,1.6,1.9,2.2,25.0,84.2,1008.9,0.00,0,0.0,0.0,0,0.0,23.9,0.0,12.3,3.513
2011/11/01,05:00:01,087,097,109,2.2,2.5,2.8,25.0,83.9,1009.0,0.00,0,0.0,0.0,0,0.0,23.7,0.0,12.3,3.511
2011/11/01,05:10:01,102,114,135,3.6,3.8,4.0,24.9,83.7,1008.9,0.00,0,0.0,0.0,0,0.0,24.1,0.0,12.4,3.511
2011/11/01,05:20:01,062,072,088,1.8,2.1,2.4,25.0,83.6,1009.1,0.00,0,0.0,0.0,0,0.0,23.9,0.0,12.3,3.511
2011/11/01,05:30:01,058,065,071,1.2,1.6,1.8,25.0,84.1,1009.1,0.00,0,0.0,0.0,0,0.0,23.9,0.0,12.3,3.511
2011/11/01,05:40:01,084,115,130,1.3,1.8,2.1,25.0,84.4,1009.0,0.00,0,0.0,0.0,0,0.0,23.7,0.0,12.3,3.511
2011/11/01,05:50:01,093,111,129,1.8,2.4,3.0,25.0,84.9,1009.0,0.00,0,0.0,0.0,0,0.0,23.9,0.0,12.3,3.511
2011/11/01,06:00:01,112,120,132,3.1,3.4,3.8,25.0,84.6,1008.8,0.00,0,0.0,0.0,0,0.0,23.7,0.0,12.3,3.513
2011/11/01,06:10:01,102,106,113,3.4,3.9,4.4,25.0,84.7,1008.9,0.00,0,0.0,0.0,0,0.0,23.7,0.0,12.3,3.511
2011/11/01,06:20:01,083,095,114,3.8,4.1,4.4,25.0,85.0,1009.0,0.00,0,0.0,0.0,0,0.0,23.9,0.0,12.3,3.510
2011/11/01,06:30:01,081,106,123,3.3,3.7,4.0,25.0,85.2,1009.0,0.00,0,0.0,0.0,0,0.0,23.9,0.0,12.3,3.511
2011/11/01,06:40:01,083,090,099,3.5,3.8,4.3,25.0,85.2,1009.1,0.00,0,0.0,0.0,0,0.0,23.4,0.0,12.2,3.513
2011/11/01,06:50:01,115,121,126,2.7,4.1,5.0,25.0,84.8,1009.3,0.00,0,0.0,0.0,0,0.0,24.3,0.0,12.4,3.513
2011/11/01,07:00:01,076,081,085,2.5,2.7,3.0,25.1,85.1,1009.5,0.00,0,0.0,0.0,0,0.0,24.1,0.0,12.3,3.513
2011/11/01,07:10:01,079,092,100,4.2,4.5,4.7,25.1,84.2,1009.6,0.00,0,0.0,0.0,0,0.0,24.3,0.0,12.3,3.510
2011/11/01,07:20:01,097,106,112,2.8,3.2,3.7,25.3,83.9,1009.8,0.00,0,0.0,0.0,0,0.0,24.6,0.0,12.2,3.513
2011/11/01,07:30:01,085,091,102,2.4,2.5,2.8,25.3,83.8,1009.9,0.00,0,0.0,0.0,0,0.0,24.8,0.0,12.3,3.511
2011/11/01,07:40:01,081,085,093,3.8,4.2,4.5,25.4,83.7,1010.1,0.00,0,0.0,0.0,0,0.0,24.8,0.0,12.3,3.513
2011/11/01,07:50:01,079,089,095,3.1,3.2,3.5,25.5,83.4,1010.2,0.00,0,0.0,0.0,0,0.0,25.0,0.0,12.3,3.513
2011/11/01,08:00:01,092,108,117,2.2,2.4,2.9,25.6,83.5,1010.4,0.00,0,0.0,0.0,0,0.0,25.1,0.0,12.3,3.511
2011/11/01,08:10:01,059,082,099,2.8,3.3,4.1,25.5,83.2,1010.5,0.00,0,0.0,0.0,0,0.0,25.1,0.0,12.3,3.511
2011/11/01,08:20:01,082,088,099,3.3,4.5,5.6,25.4,82.2,1010.6,0.00,0,0.0,0.0,0,0.0,25.0,0.0,12.3,3.513
2011/11/01,08:30:01,083,088,092,3.1,3.3,3.5,25.5,82.0,1010.7,0.00,0,0.0,0.0,0,0.0,25.1,0.0,12.3,3.511
2011/11/01,08:40:01,086,095,104,3.5,4.0,4.3,25.6,82.5,1010.9,0.00,0,0.0,0.0,0,0.0,25.1,0.0,12.3,3.511
2011/11/01,08:50:01,088,101,115,3.1,3.7,4.6,25.6,82.4,1010.9,0.00,0,0.0,0.0,0,0.0,25.1,0.0,12.3,3.511
2011/11/01,09:00:01,070,084,097,2.9,3.3,3.5,25.6,82.0,1011.1,0.00,0,0.0,0.0,0,0.0,25.5,0.0,12.2,3.511
2011/11/01,09:10:01,054,085,102,1.6,1.9,2.4,25.7,82.4,1011.2,0.00,0,0.0,0.0,0,0.0,25.3,0.0,12.3,3.511
2011/11/01,09:20:01,104,113,119,4.4,4.7,5.2,25.8,82.0,1011.2,0.00,0,0.0,0.0,0,0.0,25.6,0.0,12.3,3.513
2011/11/01,09:30:01,082,097,116,2.6,3.1,3.4,25.7,81.1,1011.2,0.00,0,0.0,0.0,0,0.0,25.6,0.0,12.3,3.511
2011/11/01,09:40:01,099,101,102,3.1,3.6,4.2,25.9,82.0,1011.1,0.00,0,0.0,0.0,0,0.0,25.8,0.0,12.3,3.511
2011/11/01,09:50:01,109,113,121,3.0,3.2,3.4,25.8,81.9,1011.2,0.00,0,0.0,0.0,0,0.0,25.8,0.0,12.2,3.511
2011/11/01,10:00:01,104,112,119,4.0,4.8,5.6,25.8,81.8,1011.2,0.00,0,0.0,0.0,0,0.0,25.8,0.0,12.2,3.511
2011/11/01,10:10:01,091,098,110,3.4,3.5,3.5,25.7,82.2,1011.2,0.00,0,0.0,0.0,0,0.0,25.5,0.0,12.3,3.511
2011/11/01,10:20:01,084,097,104,4.0,4.4,4.9,25.7,82.8,1011.2,0.00,0,0.0,0.0,0,0.0,25.5,0.0,12.3,3.511
2011/11/01,10:30:01,080,101,134,1.6,2.7,3.4,25.8,82.9,1011.2,0.00,0,0.0,0.0,0,0.0,25.6,0.0,12.3,3.511
2011/11/01,10:40:01,093,107,118,3.0,3.2,3.5,25.9,83.1,1011.0,0.00,0,0.0,0.0,0,0.0,25.8,0.0,12.3,3.511
2011/11/01,10:50:01,050,056,062,2.1,2.8,3.6,26.1,82.3,1010.9,0.00,0,0.0,0.0,0,0.0,26.5,0.0,12.3,3.511
2011/11/01,11:00:01,082,099,108,2.0,2.3,2.7,26.3,81.6,1010.8,0.00,0,0.0,0.0,0,0.0,27.0,0.0,12.3,3.513
2011/11/01,11:10:01,112,117,121,2.6,3.2,3.5,26.2,81.8,1010.9,0.00,0,0.0,0.0,0,0.0,26.7,0.0,12.3,3.511
2011/11/01,11:20:01,093,106,124,2.6,3.0,3.5,26.0,82.5,1010.9,0.00,0,0.0,0.0,0,0.0,26.0,0.0,12.3,3.511
2011/11/01,11:30:01,104,105,107,1.9,2.3,2.5,25.9,83.1,1010.5,0.00,0,0.0,0.0,0,0.0,26.0,0.0,12.3,3.511
2011/11/01,11:40:01,098,111,122,2.3,2.7,3.3,26.0,82.6,1010.3,0.00,0,0.0,0.0,0,0.0,26.5,0.0,12.3,3.511
2011/11/01,11:50:01,076,080,082,3.7,4.3,4.7,25.9,82.8,1010.3,0.00,0,0.0,0.0,0,0.0,26.0,0.0,12.3,3.511
2011/11/01,12:00:01,106,111,114,3.4,3.7,4.3,25.9,83.0,1010.3,0.00,0,0.0,0.0,0,0.0,26.2,0.0,12.3,3.511
2011/11/01,12:10:01,112,145,185,1.0,1.2,1.6,25.9,83.3,1010.3,0.00,0,0.0,0.0,0,0.0,25.8,0.0,12.3,3.513
2011/11/01,12:20:01,077,080,082,3.8,4.0,4.1,25.9,83.3,1009.9,0.00,0,0.0,0.0,0,0.0,25.8,0.0,12.3,3.511
2011/11/01,12:30:01,098,109,116,2.3,3.5,4.2,25.9,82.6,1009.5,0.00,0,0.0,0.0,0,0.0,26.0,0.0,12.3,3.513
2011/11/01,12:40:01,077,096,108,3.1,3.3,3.6,25.8,82.3,1009.6,0.00,0,0.0,0.0,0,0.0,25.8,0.0,12.2,3.510
2011/11/01,12:50:01,074,081,090,3.5,4.1,5.1,25.9,82.8,1009.7,0.00,0,0.0,0.0,0,0.0,25.8,0.0,12.3,3.511
2011/11/01,13:00:01,092,101,109,1.8,2.2,2.7,25.9,82.7,1009.7,0.00,0,0.0,0.0,0,0.0,25.8,0.0,12.3,3.511
2011/11/01,13:10:01,105,121,133,4.0,4.8,5.6,25.8,82.9,1009.4,0.00,0,0.0,0.0,0,0.0,25.6,0.0,12.3,3.511
2011/11/01,13:20:01,085,101,117,3.2,3.7,4.2,26.0,82.5,1009.1,0.00,0,0.0,0.0,0,0.0,26.2,0.0,12.3,3.511
2011/11/01,13:30:01,068,072,075,3.5,3.7,3.9,26.2,82.0,1009.3,0.00,0,0.0,0.0,0,0.0,27.0,0.0,12.3,3.511
2011/11/01,13:40:01,075,092,102,3.1,3.6,3.9,26.3,81.6,1009.5,0.00,0,0.0,0.0,0,0.0,27.0,0.0,12.3,3.510
2011/11/01,13:50:01,066,079,089,4.0,4.6,5.5,26.0,82.4,1009.5,0.00,0,0.0,0.0,0,0.0,26.2,0.0,12.3,3.511
2011/11/01,14:00:01,086,101,117,3.8,3.9,4.1,25.8,83.1,1009.4,0.00,0,0.0,0.0,0,0.0,25.6,0.0,12.3,3.511
2011/11/01,14:10:01,072,087,101,3.6,3.9,4.4,25.8,83.4,1009.5,0.00,0,0.0,0.0,0,0.0,25.5,0.0,12.4,3.511
2011/11/01,14:20:01,072,078,083,3.3,3.4,3.5,25.7,84.1,1009.4,0.00,0,0.0,0.0,0,0.0,25.3,0.0,12.3,3.511
2011/11/01,14:30:01,057,060,064,2.5,3.8,4.8,25.7,84.1,1009.3,0.00,0,0.0,0.0,0,0.0,25.3,0.0,12.3,3.511
2011/11/01,14:40:01,061,071,085,2.6,3.4,4.2,25.7,84.3,1009.3,0.00,0,0.0,0.0,0,0.0,25.1,0.0,12.4,3.511
2011/11/01,14:50:01,063,071,085,5.2,5.6,5.9,25.8,84.2,1009.3,0.00,0,0.0,0.0,0,0.0,25.5,0.0,12.3,3.510
2011/11/01,15:00:01,060,069,076,2.3,3.2,3.8,25.6,78.8,1009.3,0.01,20,0.0,0.0,0,0.0,25.5,0.0,12.3,3.513
2011/11/01,15:10:01,071,080,084,1.9,2.8,3.9,25.2,87.7,1009.2,0.32,510,0.0,0.0,0,0.0,24.3,0.0,12.3,3.511
2011/11/01,15:20:01,015,038,071,1.7,1.8,2.0,25.0,89.3,1009.0,0.00,10,0.0,0.0,0,0.0,23.9,0.0,12.2,3.511
2011/11/01,15:30:01,082,084,086,3.6,3.8,4.2,25.1,89.3,1009.0,0.00,0,0.0,0.0,0,0.0,24.1,0.0,12.2,3.513
2011/11/01,15:40:01,103,109,115,2.5,2.9,3.3,25.1,89.0,1008.9,0.00,0,0.0,0.0,0,0.0,23.7,0.0,12.3,3.511
2011/11/01,15:50:01,068,085,112,1.4,1.7,1.9,25.2,89.2,1009.0,0.01,100,0.0,0.0,0,0.0,24.1,0.0,12.3,3.513
2011/11/01,16:00:01,087,102,110,3.3,3.7,4.3,25.2,89.5,1009.1,0.01,100,0.0,0.0,0,0.0,23.9,0.0,12.3,3.511
2011/11/01,16:10:01,073,084,090,1.5,1.9,2.1,25.1,89.2,1009.1,0.00,0,0.0,0.0,0,0.0,24.1,0.0,12.2,3.511
2011/11/01,16:20:01,102,104,106,1.1,1.3,1.5,25.1,89.5,1009.3,0.00,0,0.0,0.0,0,0.0,24.3,0.0,12.3,3.511
2011/11/01,16:30:01,102,103,104,2.7,3.0,3.2,25.1,89.0,1009.2,0.00,0,0.0,0.0,0,0.0,24.3,0.0,12.3,3.511
2011/11/01,16:40:01,072,083,092,2.0,2.2,2.4,25.1,88.9,1009.3,0.00,0,0.0,0.0,0,0.0,24.3,0.0,12.3,3.510
2011/11/01,16:50:01,006,055,099,1.8,2.1,2.3,25.1,88.8,1009.3,0.00,0,0.0,0.0,0,0.0,24.3,0.0,12.2,3.511
2011/11/01,17:00:01,065,073,080,4.1,5.2,5.9,25.2,89.2,1009.1,0.01,20,0.0,0.0,0,0.0,24.1,0.0,12.4,3.513
2011/11/01,17:10:01,077,089,103,2.7,3.4,4.3,25.1,89.0,1009.3,0.00,0,0.0,0.0,0,0.0,24.1,0.0,12.3,3.511
2011/11/01,17:20:01,085,097,115,3.0,3.0,3.1,24.8,89.6,1009.3,0.06,130,0.0,0.0,0,0.0,23.7,0.0,12.4,3.511
2011/11/01,17:30:01,047,061,079,3.4,4.3,5.0,24.9,90.6,1009.0,0.00,0,0.0,0.0,0,0.0,23.6,0.0,12.2,3.510
2011/11/01,17:40:01,065,075,081,2.4,3.0,3.3,24.6,90.2,1009.1,0.00,0,0.0,0.0,0,0.0,23.6,0.0,12.4,3.513
2011/11/01,17:50:01,092,108,134,3.2,3.4,3.7,24.4,90.0,1009.1,0.00,0,0.0,0.0,0,0.0,23.4,0.0,12.3,3.513
2011/11/01,18:00:01,079,086,090,2.1,2.5,3.0,23.8,89.8,1009.2,0.00,0,0.0,0.0,0,0.0,22.7,0.0,12.3,3.511
2011/11/01,18:10:01,059,063,072,4.4,4.5,4.7,23.5,90.8,1009.4,0.26,290,0.1,0.0,0,0.0,22.4,0.0,12.3,3.511
2011/11/01,18:20:01,085,097,103,2.1,2.4,2.6,23.9,91.8,1009.4,0.49,550,0.2,0.0,0,0.0,22.5,0.0,12.4,3.513
2011/11/01,18:30:01,329,350,006,0.7,0.9,1.1,24.0,92.0,1009.4,1.76,560,37.8,0.0,0,0.0,22.9,0.0,12.4,3.513
2011/11/01,18:40:01,074,087,101,1.8,2.2,2.8,24.5,92.5,1009.3,0.12,220,0.0,0.0,0,0.0,23.2,0.0,12.3,3.513
2011/11/01,18:50:01,088,100,111,4.7,4.8,5.0,24.6,91.8,1009.5,0.24,210,1.2,0.0,0,0.0,23.4,0.0,12.2,3.513
2011/11/01,19:00:01,077,099,115,2.5,3.6,4.9,24.6,91.2,1009.7,0.09,270,0.0,0.0,0,0.0,23.4,0.0,12.4,3.513
2011/11/01,19:10:01,041,062,076,4.0,4.7,5.2,24.4,90.2,1009.9,0.00,0,0.0,0.0,0,0.0,23.4,0.0,12.4,3.511
2011/11/01,19:20:01,081,094,115,3.9,4.1,4.3,24.8,90.2,1010.1,0.00,0,0.0,0.0,0,0.0,23.6,0.0,12.3,3.511
2011/11/01,19:30:01,095,122,156,1.5,2.5,3.7,24.9,89.5,1010.3,0.00,0,0.0,0.0,0,0.0,23.9,0.0,12.4,3.511
2011/11/01,19:40:01,100,101,104,3.7,5.3,6.3,25.0,89.3,1010.4,0.00,0,0.0,0.0,0,0.0,23.9,0.0,12.2,3.511
2011/11/01,19:50:01,093,105,125,3.3,4.0,4.9,25.1,89.0,1010.4,0.00,0,0.0,0.0,0,0.0,24.1,0.0,12.2,3.511
2011/11/01,20:00:01,081,084,088,7.1,7.6,8.6,25.1,89.0,1010.4,0.00,0,0.0,0.0,0,0.0,24.3,0.0,12.4,3.513
2011/11/01,20:10:01,100,105,109,4.3,4.7,5.3,25.1,88.5,1010.3,0.00,0,0.0,0.0,0,0.0,24.3,0.0,12.3,3.511
2011/11/01,20:20:01,036,061,085,1.6,2.3,2.9,25.1,88.5,1010.5,0.00,0,0.0,0.0,0,0.0,24.3,0.0,12.3,3.509
2011/11/01,20:30:01,060,063,068,4.3,5.5,6.9,25.0,89.0,1010.4,0.00,0,0.0,0.0,0,0.0,23.9,0.0,12.3,3.511
2011/11/01,20:40:01,080,087,100,4.3,4.7,5.1,25.1,89.1,1010.5,0.00,0,0.0,0.0,0,0.0,23.9,0.0,12.4,3.511
2011/11/01,20:50:01,101,116,126,3.0,3.2,3.4,24.9,88.8,1010.7,0.00,0,0.0,0.0,0,0.0,24.1,0.0,12.4,3.513
2011/11/01,21:00:01,108,119,125,1.6,2.2,2.8,24.9,88.5,1010.7,0.00,0,0.0,0.0,0,0.0,24.1,0.0,12.2,3.513
2011/11/01,21:10:01,113,124,136,1.2,1.4,1.7,25.0,89.0,1010.7,0.00,0,0.0,0.0,0,0.0,24.1,0.0,12.4,3.511
2011/11/01,21:20:01,102,109,115,3.0,3.5,4.0,25.0,89.4,1010.8,0.00,0,0.0,0.0,0,0.0,24.1,0.0,12.2,3.510
2011/11/01,21:30:01,061,084,108,2.5,3.1,3.6,25.1,89.5,1010.8,0.00,0,0.0,0.0,0,0.0,24.4,0.0,12.2,3.511
2011/11/01,21:40:01,103,112,117,3.8,4.9,5.6,25.0,87.0,1010.8,0.00,0,0.0,0.0,0,0.0,24.3,0.0,12.3,3.511
2011/11/01,21:50:01,125,140,148,3.7,4.8,5.7,24.0,87.8,1011.1,0.16,160,2.6,0.0,0,0.0,23.2,0.0,12.4,3.513
2011/11/01,22:00:01,089,106,122,3.6,4.4,5.5,23.7,90.7,1010.9,1.02,300,0.0,0.0,0,0.0,22.5,0.0,12.2,3.511
2011/11/01,22:10:01,104,107,110,3.7,4.3,4.9,23.5,91.2,1010.9,0.24,430,4.0,0.0,0,0.0,22.4,0.0,12.3,3.511
2011/11/01,22:20:01,085,102,113,3.8,4.0,4.1,23.6,91.7,1010.8,0.11,320,0.0,0.0,0,0.0,22.4,0.0,12.3,3.510
2011/11/01,22:30:01,095,101,106,1.2,1.4,1.7,23.8,92.0,1010.8,0.00,0,0.0,0.0,0,0.0,22.5,0.0,12.2,3.511
2011/11/01,22:40:01,117,122,126,2.8,3.2,3.4,24.0,92.1,1010.7,0.00,0,0.0,0.0,0,0.0,22.7,0.0,12.4,3.511
2011/11/01,22:50:01,083,089,094,3.5,4.7,5.4,24.1,91.9,1010.7,0.00,0,0.0,0.0,0,0.0,23.1,0.0,12.4,3.511
2011/11/01,23:00:01,073,080,085,2.3,2.5,3.0,24.3,92.2,1010.5,0.00,0,0.0,0.0,0,0.0,23.1,0.0,12.1,3.511
2011/11/01,23:10:01,083,090,098,4.0,4.5,4.9,24.5,91.9,1010.4,0.00,0,0.0,0.0,0,0.0,23.4,0.0,12.4,3.511
2011/11/01,23:20:01,092,107,118,1.6,2.0,2.5,24.6,91.7,1010.3,0.00,0,0.0,0.0,0,0.0,23.6,0.0,12.2,3.511
2011/11/01,23:30:01,089,095,100,3.6,4.4,5.2,24.7,91.5,1010.3,0.00,0,0.0,0.0,0,0.0,23.7,0.0,12.4,3.511
2011/11/01,23:40:01,103,105,108,2.6,3.8,5.0,24.7,91.3,1010.3,0.00,0,0.0,0.0,0,0.0,23.6,0.0,12.2,3.513
2011/11/01,23:50:01,089,099,106,3.7,3.9,4.1,24.8,91.2,1010.1,0.00,0,0.0,0.0,0,0.0,23.7,0.0,12.2,3.511
2011/11/02,00:00:01,081,093,114,3.8,4.1,4.3,24.8,91.1,1010.1,0.00,0,0.0,0.0,0,0.0,23.7,0.0,12.4,3.511
2011/11/02,00:10:01,111,115,119,3.7,4.4,5.1,24.8,90.9,1010.2,0.00,0,0.0,0.0,0,0.0,23.7,0.0,12.4,3.513
2011/11/02,00:20:01,082,092,098,3.8,4.4,4.9,24.8,90.5,1010.1,0.00,10,0.0,0.0,0,0.0,23.9,0.0,12.2,3.511
2011/11/02,00:30:01,106,110,115,4.3,5.0,5.6,24.8,89.7,1010.1,0.00,0,0.0,0.0,0,0.0,23.9,0.0,12.3,3.510
2011/11/02,00:40:01,088,095,101,2.7,3.3,3.7,24.9,89.6,1010.2,0.00,0,0.0,0.0,0,0.0,23.9,0.0,12.4,3.513
2011/11/02,00:50:01,074,086,100,4.0,5.0,5.6,24.9,89.8,1010.2,0.00,0,0.0,0.0,0,0.0,23.9,0.0,12.3,3.513
2011/11/02,01:00:01,092,103,114,3.9,4.1,4.5,25.0,89.8,1010.3,0.00,0,0.0,0.0,0,0.0,23.9,0.0,12.3,3.511
2011/11/02,01:10:01,113,117,119,2.1,2.7,3.1,25.0,90.0,1010.3,0.00,0,0.0,0.0,0,0.0,24.4,0.0,12.3,3.511
2011/11/02,01:20:01,110,118,122,4.2,4.4,4.7,25.0,90.2,1010.2,0.00,0,0.0,0.0,0,0.0,24.1,0.0,12.2,3.511
2011/11/02,01:30:01,094,103,109,2.7,2.8,2.9,25.0,90.0,1010.1,0.00,0,0.0,0.0,0,0.0,24.1,0.0,12.2,3.511
2011/11/02,01:40:01,109,119,126,2.1,2.4,2.9,24.9,89.7,1010.2,0.00,0,0.0,0.0,0,0.0,24.1,0.0,12.3,3.511
2011/11/02,01:50:01,089,096,107,3.0,3.1,3.2,25.0,89.3,1010.1,0.00,0,0.0,0.0,0,0.0,24.1,0.0,12.2,3.511
2011/11/02,02:00:01,116,120,124,3.2,3.4,3.6,25.0,89.1,1010.1,0.00,0,0.0,0.0,0,0.0,24.1,0.0,12.4,3.511
2011/11/02,02:10:01,081,101,130,0.6,1.0,1.4,24.9,89.1,1010.1,0.00,0,0.0,0.0,0,0.0,23.9,0.0,12.4,3.511
2011/11/02,02:20:01,104,107,110,4.1,4.5,4.9,24.8,88.9,1010.1,0.00,0,0.0,0.0,0,0.0,23.7,0.0,12.2,3.511
2011/11/02,02:30:01,133,142,157,2.7,3.8,4.5,24.6,89.1,1010.1,0.00,0,0.0,0.0,0,0.0,23.6,0.0,12.2,3.511
2011/11/02,02:40:01,118,123,129,3.6,3.9,4.0,24.5,89.0,1010.0,0.00,0,0.0,0.0,0,0.0,23.4,0.0,12.3,3.511
2011/11/02,02:50:01,104,109,113,3.3,3.5,3.7,24.4,89.2,1009.8,0.00,0,0.0,0.0,0,0.0,23.4,0.0,12.2,3.513
2011/11/02,03:00:01,110,113,116,1.6,1.8,2.0,24.5,89.3,1009.6,0.00,0,0.0,0.0,0,0.0,23.4,0.0,12.2,3.513
2011/11/02,03:10:01,115,122,133,2.3,2.7,3.0,24.5,89.5,1009.6,0.00,0,0.0,0.0,0,0.0,23.2,0.0,12.3,3.513
2011/11/02,03:20:01,129,133,135,1.5,1.9,2.3,24.5,89.7,1009.6,0.00,0,0.0,0.0,0,0.0,23.4,0.0,12.3,3.513
2011/11/02,03:30:01,140,147,150,1.4,1.6,1.8,24.6,89.8,1009.5,0.00,0,0.0,0.0,0,0.0,23.4,0.0,12.3,3.513
2011/11/02,03:40:01,074,078,080,0.7,0.9,1.2,24.7,90.3,1009.5,0.00,0,0.0,0.0,0,0.0,23.6,0.0,12.4,3.514
2011/11/02,03:50:01,075,080,088,2.5,2.9,3.1,24.8,90.4,1009.5,0.00,0,0.0,0.0,0,0.0,23.7,0.0,12.3,3.511
2011/11/02,04:00:01,089,096,101,2.2,2.4,2.7,24.8,90.2,1009.5,0.00,0,0.0,0.0,0,0.0,23.7,0.0,12.2,3.515
2011/11/02,04:10:01,115,115,116,1.6,1.8,2.1,24.8,90.2,1009.5,0.00,0,0.0,0.0,0,0.0,23.7,0.0,12.2,3.511
2011/11/02,04:20:01,110,116,120,0.8,1.0,1.1,24.7,90.1,1009.4,0.00,0,0.0,0.0,0,0.0,23.6,0.0,12.4,3.511
2011/11/02,04:30:01,113,114,114,1.5,1.6,1.8,24.6,90.3,1009.5,0.00,0,0.0,0.0,0,0.0,23.4,0.0,12.4,3.513
2011/11/02,04:40:01,141,143,146,0.5,0.7,0.8,24.6,90.3,1009.5,0.00,0,0.0,0.0,0,0.0,23.4,0.0,12.4,3.511
2011/11/02,04:50:01,173,175,178,0.1,0.3,0.4,24.5,90.4,1009.5,0.00,0,0.0,0.0,0,0.0,23.4,0.0,12.4,3.510
2011/11/02,05:00:01,034,044,050,0.3,0.4,0.5,24.5,90.2,1009.6,0.00,0,0.0,0.0,0,0.0,23.4,0.0,12.3,3.511
2011/11/02,05:10:01,352,002,011,1.0,1.3,1.6,24.6,90.3,1009.7,0.00,0,0.0,0.0,0,0.0,23.4,0.0,12.2,3.510
2011/11/02,05:20:01,347,357,003,1.3,1.4,1.5,24.8,90.5,1009.9,0.00,0,0.0,0.0,0,0.0,23.7,0.0,12.4,3.511
2011/11/02,05:30:01,055,062,066,0.4,0.5,0.6,24.8,90.6,1009.8,0.00,0,0.0,0.0,0,0.0,23.7,0.0,12.2,3.511
2011/11/02,05:40:01,085,105,124,1.0,1.1,1.2,24.6,90.6,1009.7,0.00,0,0.0,0.0,0,0.0,23.4,0.0,12.4,3.511
2011/11/02,05:50:01,116,125,133,1.0,1.3,1.5,24.5,91.0,1009.6,0.00,0,0.0,0.0,0,0.0,23.2,0.0,12.3,3.511
2011/11/02,06:00:01,098,104,112,0.4,0.5,0.6,24.5,91.2,1009.8,0.00,0,0.0,0.0,0,0.0,23.4,0.0,12.3,3.511
2011/11/02,06:10:01,110,111,114,1.0,1.0,1.2,24.5,91.3,1009.8,0.00,0,0.0,0.0,0,0.0,23.4,0.0,12.3,3.511
2011/11/02,06:20:01,101,112,124,0.5,0.6,0.7,24.4,91.4,1009.9,0.00,0,0.0,0.0,0,0.0,23.1,0.0,12.3,3.513
2011/11/02,06:30:01,070,076,080,0.3,0.4,0.5,24.4,91.7,1009.9,0.00,0,0.0,0.0,0,0.0,23.1,0.0,12.4,3.511
2011/11/02,06:40:01,356,005,012,0.9,1.0,1.2,24.5,92.0,1009.9,0.00,0,0.0,0.0,0,0.0,23.1,0.0,12.3,3.511
2011/11/02,06:50:01,240,250,258,0.5,0.6,0.7,24.5,91.9,1010.0,0.00,0,0.0,0.0,0,0.0,23.2,0.0,12.4,3.511
2011/11/02,07:00:01,349,352,354,0.8,0.9,1.0,24.6,92.1,1010.0,0.00,0,0.0,0.0,0,0.0,23.4,0.0,12.2,3.513
2011/11/02,07:10:01,341,345,349,0.7,0.8,0.9,24.6,91.9,1010.0,0.00,0,0.0,0.0,0,0.0,23.9,0.0,12.2,3.513
2011/11/02,07:20:01,194,198,201,0.5,0.5,0.6,24.7,91.9,1010.1,0.00,0,0.0,0.0,0,0.0,24.1,0.0,12.4,3.510
2011/11/02,07:30:01,079,081,081,1.4,1.6,1.8,24.7,91.2,1010.1,0.00,0,0.0,0.0,0,0.0,24.8,0.0,12.3,3.511
2011/11/02,07:40:01,084,087,092,1.2,1.3,1.4,24.8,90.5,1010.3,0.00,0,0.0,0.0,0,0.0,25.0,0.0,12.4,3.511
2011/11/02,07:50:01,092,093,094,1.6,1.7,1.9,25.2,89.5,1010.5,0.00,0,0.0,0.0,0,0.0,25.8,0.0,12.3,3.511
2011/11/02,08:00:01,083,090,096,0.4,0.7,1.0,25.5,87.1,1010.6,0.00,0,0.0,0.0,0,0.0,26.7,0.0,12.2,3.511
2011/11/02,08:10:01,048,062,084,2.6,2.8,3.0,25.7,86.9,1010.6,0.00,0,0.0,0.0,0,0.0,26.7,0.0,12.3,3.511
2011/11/02,08:20:01,055,061,071,0.9,1.1,1.3,25.6,87.0,1010.7,0.00,0,0.0,0.0,0,0.0,25.6,0.0,12.2,3.511
2011/11/02,08:30:01,060,070,076,1.0,1.1,1.2,25.5,88.0,1010.7,0.00,0,0.0,0.0,0,0.0,25.1,0.0,12.4,3.511
2011/11/02,08:40:01,093,106,117,2.1,2.2,2.3,25.5,88.9,1010.7,0.00,0,0.0,0.0,0,0.0,25.3,0.0,12.2,3.511
2011/11/02,08:50:01,063,091,127,0.8,0.8,0.9,25.5,89.3,1010.7,0.00,0,0.0,0.0,0,0.0,25.3,0.0,12.4,3.511
2011/11/02,09:00:01,091,104,115,3.3,3.6,4.0,25.4,88.9,1010.6,0.00,0,0.0,0.0,0,0.0,25.1,0.0,12.3,3.511
2011/11/02,09:10:01,092,101,109,2.1,2.3,2.7,25.5,88.7,1010.7,0.00,0,0.0,0.0,0,0.0,25.3,0.0,12.3,3.511
2011/11/02,09:20:01,007,044,077,1.7,2.2,2.8,25.5,88.4,1010.8,0.00,0,0.0,0.0,0,0.0,25.3,0.0,12.3,3.511
2011/11/02,09:30:01,079,107,151,1.1,1.6,2.1,25.6,87.6,1010.9,0.00,0,0.0,0.0,0,0.0,25.3,0.0,12.2,3.511
2011/11/02,09:40:01,091,097,108,2.3,2.7,3.1,25.6,88.2,1011.0,0.00,0,0.0,0.0,0,0.0,25.5,0.0,12.2,3.511
2011/11/02,09:50:01,107,111,113,2.0,2.5,2.9,25.6,87.7,1011.1,0.00,0,0.0,0.0,0,0.0,25.5,0.0,12.2,3.511
2011/11/02,10:00:01,093,095,098,1.8,2.1,2.5,25.7,87.4,1011.1,0.00,0,0.0,0.0,0,0.0,25.8,0.0,12.3,3.510
2011/11/02,10:10:01,102,105,107,2.3,2.5,2.6,25.7,87.7,1011.2,0.00,0,0.0,0.0,0,0.0,25.6,0.0,12.2,3.513
2011/11/02,10:20:01,085,089,092,3.1,3.2,3.3,25.8,87.4,1011.2,0.00,0,0.0,0.0,0,0.0,25.8,0.0,12.3,3.511
2011/11/02,10:30:01,067,100,131,1.3,2.0,2.7,25.5,87.7,1011.2,0.71,300,1.1,0.0,0,0.0,25.0,0.0,12.3,3.513
2011/11/02,10:40:01,114,120,125,1.4,1.9,2.5,25.3,89.4,1011.2,1.42,310,15.5,0.0,0,0.0,24.4,0.0,12.4,3.514
2011/11/02,10:50:01,119,123,131,2.7,3.0,3.5,25.3,90.7,1011.1,0.72,470,2.8,0.0,0,0.0,24.3,0.0,12.4,3.511
2011/11/02,11:00:01,077,099,113,3.8,4.2,4.6,24.7,90.5,1010.8,1.09,570,18.2,0.0,0,0.0,23.7,0.0,12.3,3.511
2011/11/02,11:10:01,137,141,144,4.8,5.4,6.1,24.9,91.4,1010.6,0.38,380,0.0,0.0,0,0.0,23.9,0.0,12.3,3.511
2011/11/02,11:20:01,119,122,125,4.8,5.4,5.8,25.0,90.9,1010.5,0.00,0,0.0,0.0,0,0.0,24.6,0.0,12.3,3.511
2011/11/02,11:30:01,077,112,155,0.8,1.3,1.9,25.2,90.1,1010.4,0.01,100,0.0,0.0,0,0.0,25.1,0.0,12.4,3.513
2011/11/02,11:40:01,118,127,141,1.8,2.2,2.7,25.2,90.4,1010.2,0.00,0,0.0,0.0,0,0.0,24.8,0.0,12.2,3.511
2011/11/02,11:50:01,057,074,093,2.3,2.4,2.5,25.3,90.5,1010.2,0.00,0,0.0,0.0,0,0.0,25.0,0.0,12.3,3.513
2011/11/02,12:00:01,104,110,115,3.1,4.6,5.9,25.3,90.2,1010.1,0.00,0,0.0,0.0,0,0.0,25.5,0.0,12.2,3.514
2011/11/02,12:10:01,114,118,122,2.5,2.9,3.4,25.3,88.4,1010.0,0.00,0,0.0,0.0,0,0.0,25.5,0.0,12.3,3.513
2011/11/02,12:20:01,130,132,133,3.0,3.4,3.7,25.4,87.8,1009.9,0.00,0,0.0,0.0,0,0.0,25.5,0.0,12.2,3.511
2011/11/02,12:30:01,111,118,132,3.5,3.9,4.3,25.3,87.1,1009.7,0.00,0,0.0,0.0,0,0.0,25.5,0.0,12.4,3.511
2011/11/02,12:40:01,104,106,107,2.7,3.0,3.3,25.4,87.1,1009.5,0.00,0,0.0,0.0,0,0.0,25.5,0.0,12.4,3.513
2011/11/02,12:50:01,110,129,153,4.0,4.2,4.5,25.5,87.2,1009.5,0.00,0,0.0,0.0,0,0.0,25.6,0.0,12.3,3.511
2011/11/02,13:00:01,093,105,125,4.4,4.6,4.9,25.4,86.9,1009.5,0.00,0,0.0,0.0,0,0.0,25.3,0.0,12.4,3.511
2011/11/02,13:10:01,081,091,105,3.6,4.1,4.5,25.5,85.2,1009.4,0.00,0,0.0,0.0,0,0.0,25.6,0.0,12.3,3.513
2011/11/02,13:20:01,102,114,120,4.5,5.2,5.9,25.7,84.8,1009.4,0.00,0,0.0,0.0,0,0.0,26.0,0.0,12.3,3.511
2011/11/02,13:30:01,116,122,135,4.5,5.7,6.4,26.0,83.3,1009.3,0.00,0,0.0,0.0,0,0.0,27.0,0.0,12.2,3.511
2011/11/02,13:40:01,115,122,127,5.5,6.1,6.4,25.9,81.6,1009.1,0.00,0,0.0,0.0,0,0.0,26.7,0.0,12.4,3.511
2011/11/02,13:50:01,106,111,117,5.3,6.6,7.9,25.8,82.3,1009.1,0.00,0,0.0,0.0,0,0.0,26.0,0.0,12.2,3.511
2011/11/02,14:00:01,101,104,108,4.5,5.7,6.3,26.2,82.7,1008.9,0.00,0,0.0,0.0,0,0.0,26.8,0.0,12.3,3.510